Forside
METAR-TAF:

METAR-TAF

Lufthavne :

Burnett County Airport

Siren, Wisconsin, USA

Breddekreds: 45-49-22N, længdekreds: 092-22-21W, højde: 301 m

Aktuelle vejr

Denne rapport blev lavet for 8 minutter siden, kl. 20:35 UTC
Vind 9 kt fra vestsydvest
Temperatur 13°C
Fugtighed 26%
Tryk 1020 hPa
Sigt: 16.1 km
Brudte skyer i en højde af 8000 ft

METAR: KRZN 052035Z AUTO 25009KT 10SM BKN080 13/M06 A3012 RMK AO2 T01331057

Tid: 15:43 (20:43 UTC)


TAF: fraværende

Vejrobservationer og prognoser fra mere end 4000 lufthavne (METAR og TAF).

De gule og røde prikker repræsenterer de meteorologiske stationer.

Flyt musen over at se navnet på stationen.

Så klik over at se vejr observationer og prognoser.

At skifte det kort: Klik på de grønne knapper med et sort kors for at zoome ind; på den grønne knap med en bindestreg for at zoome ud; eller på de grønne pile for tilstødende kort.


METAR-TAF: